Time,TemperatureF,DewpointF,PressureIn,WindDirection,WindDirectionDegrees,WindSpeedMPH,WindSpeedGustMPH,Humidity,HourlyPrecipIn,Conditions,Clouds,dailyrainin,SoftwareType,DateUTC
2013-01-28 00:02:00,42.0,40.0,29.96,SSE,148,10.0,20.0,94,0.00,,,0.10,,2013-01-28 06:02:00,
2013-01-28 00:11:00,42.0,40.0,29.96,SSE,148,10.0,20.0,94,0.00,,,0.10,,2013-01-28 06:11:00,
2013-01-28 00:21:00,42.0,40.0,29.96,SSE,148,10.0,20.0,94,0.00,,,0.10,,2013-01-28 06:21:00,
2013-01-28 00:32:00,42.0,40.0,29.96,SE,139,9.0,15.0,93,0.00,,,0.10,,2013-01-28 06:32:00,
2013-01-28 00:42:00,42.0,40.0,29.96,SE,139,9.0,15.0,93,0.00,,,0.10,,2013-01-28 06:42:00,
2013-01-28 00:52:00,43.0,41.0,29.96,South,175,7.0,20.0,93,0.00,,,0.10,,2013-01-28 06:52:00,
2013-01-28 01:02:00,44.0,42.0,29.96,SSE,159,9.0,23.0,93,0.00,,,0.10,,2013-01-28 07:02:00,
2013-01-28 01:11:00,44.0,42.0,29.96,SSE,159,9.0,23.0,93,0.00,,,0.10,,2013-01-28 07:11:00,
2013-01-28 01:21:00,43.0,41.0,29.96,SSE,163,6.0,14.0,92,0.00,,,0.10,,2013-01-28 07:21:00,
2013-01-28 01:32:00,43.0,41.0,29.96,SSE,163,6.0,14.0,92,0.00,,,0.10,,2013-01-28 07:32:00,
2013-01-28 01:41:00,43.0,41.0,29.96,SSE,163,6.0,14.0,92,0.00,,,0.10,,2013-01-28 07:41:00,
2013-01-28 01:52:00,44.0,42.0,29.95,South,177,9.0,23.0,92,0.00,,,0.10,,2013-01-28 07:52:00,
2013-01-28 02:01:00,44.0,42.0,29.95,South,172,10.0,16.0,92,0.00,,,0.10,,2013-01-28 08:01:00,
2013-01-28 02:11:00,44.0,42.0,29.95,South,172,10.0,16.0,92,0.00,,,0.10,,2013-01-28 08:11:00,
2013-01-28 02:21:00,44.0,42.0,29.95,South,172,10.0,16.0,92,0.00,,,0.10,,2013-01-28 08:21:00,
2013-01-28 02:32:00,44.0,42.0,29.94,South,171,10.0,21.0,91,0.00,,,0.10,,2013-01-28 08:32:00,
2013-01-28 02:42:00,44.0,42.0,29.94,South,171,10.0,21.0,91,0.00,,,0.10,,2013-01-28 08:42:00,
2013-01-28 02:52:00,44.0,42.0,29.94,SSE,155,12.0,21.0,92,0.01,,,0.11,,2013-01-28 08:52:00,
2013-01-28 03:02:00,45.0,43.0,29.94,South,172,8.0,20.0,92,0.01,,,0.11,,2013-01-28 09:02:00,
2013-01-28 03:11:00,45.0,43.0,29.94,South,172,8.0,20.0,92,0.01,,,0.11,,2013-01-28 09:11:00,
2013-01-28 03:21:00,45.0,43.0,29.93,South,173,5.0,18.0,92,0.01,,,0.11,,2013-01-28 09:21:00,
2013-01-28 03:32:00,45.0,43.0,29.93,South,169,6.0,23.0,92,0.01,,,0.11,,2013-01-28 09:32:00,
2013-01-28 03:42:00,45.0,43.0,29.93,South,169,6.0,23.0,92,0.01,,,0.11,,2013-01-28 09:42:00,
2013-01-28 03:52:00,46.0,44.0,29.93,SSW,206,9.0,18.0,93,0.02,,,0.13,,2013-01-28 09:52:00,
2013-01-28 04:02:00,46.0,44.0,29.93,SSW,194,7.0,16.0,93,0.03,,,0.14,,2013-01-28 10:02:00,
2013-01-28 04:11:00,46.0,44.0,29.93,SSW,194,7.0,16.0,93,0.03,,,0.14,,2013-01-28 10:11:00,
2013-01-28 04:21:00,46.0,44.0,29.93,SSW,194,7.0,16.0,93,0.03,,,0.14,,2013-01-28 10:21:00,
2013-01-28 04:31:00,46.0,44.0,29.92,SSE,157,9.0,16.0,93,0.04,,,0.15,,2013-01-28 10:31:00,
2013-01-28 04:41:00,46.0,44.0,29.92,SSE,157,9.0,16.0,93,0.04,,,0.15,,2013-01-28 10:41:00,
2013-01-28 04:52:00,46.0,44.0,29.92,SSE,148,5.0,18.0,93,0.02,,,0.15,,2013-01-28 10:52:00,
2013-01-28 05:02:00,46.0,44.0,29.92,South,175,6.0,14.0,93,0.01,,,0.15,,2013-01-28 11:02:00,
2013-01-28 05:11:00,46.0,44.0,29.92,South,175,6.0,14.0,93,0.01,,,0.15,,2013-01-28 11:11:00,
2013-01-28 05:22:00,46.0,44.0,29.92,SSE,163,9.0,18.0,94,0.00,,,0.15,,2013-01-28 11:22:00,
2013-01-28 05:32:00,46.0,44.0,29.92,SSE,163,9.0,18.0,94,0.00,,,0.15,,2013-01-28 11:32:00,
2013-01-28 05:42:00,46.0,44.0,29.92,SSE,163,9.0,18.0,94,0.00,,,0.15,,2013-01-28 11:42:00,
2013-01-28 05:52:00,46.0,44.0,29.92,SSE,163,9.0,18.0,94,0.00,,,0.15,,2013-01-28 11:52:00,
2013-01-28 06:03:00,46.0,44.0,29.90,South,178,11.0,15.0,94,0.00,,,0.15,,2013-01-28 12:03:00,
2013-01-28 06:12:00,46.0,44.0,29.90,South,178,11.0,15.0,94,0.00,,,0.15,,2013-01-28 12:12:00,
2013-01-28 06:23:00,46.0,44.0,29.91,SSE,149,10.0,15.0,94,0.00,,,0.15,,2013-01-28 12:23:00,
2013-01-28 06:33:00,46.0,44.0,29.91,South,181,12.0,15.0,94,0.00,,,0.15,,2013-01-28 12:33:00,
2013-01-28 06:42:00,46.0,44.0,29.91,South,181,12.0,15.0,94,0.00,,,0.15,,2013-01-28 12:42:00,
2013-01-28 06:52:00,46.0,44.0,29.91,South,181,12.0,15.0,94,0.00,,,0.15,,2013-01-28 12:52:00,
2013-01-28 07:02:00,47.0,45.0,29.90,SSE,162,8.0,16.0,93,0.00,,,0.15,,2013-01-28 13:02:00,
2013-01-28 07:12:00,47.0,45.0,29.90,SSE,162,8.0,16.0,93,0.00,,,0.15,,2013-01-28 13:12:00,
2013-01-28 07:23:00,47.0,45.0,29.90,South,177,9.0,23.0,93,0.01,,,0.16,,2013-01-28 13:23:00,
2013-01-28 07:33:00,47.0,45.0,29.90,SSE,159,8.0,20.0,93,0.01,,,0.16,,2013-01-28 13:33:00,
2013-01-28 07:42:00,47.0,45.0,29.90,SSE,159,8.0,20.0,93,0.01,,,0.16,,2013-01-28 13:42:00,
2013-01-28 07:53:00,47.0,45.0,29.90,SSE,159,8.0,20.0,93,0.01,,,0.16,,2013-01-28 13:53:00,
2013-01-28 08:03:00,48.0,46.0,29.90,South,170,6.0,18.0,93,0.01,,,0.16,,2013-01-28 14:03:00,
2013-01-28 08:12:00,48.0,46.0,29.90,South,170,6.0,18.0,93,0.01,,,0.16,,2013-01-28 14:12:00,
2013-01-28 08:22:00,48.0,46.0,29.91,SSW,193,7.0,20.0,93,0.00,,,0.16,,2013-01-28 14:22:00,
2013-01-28 08:33:00,48.0,46.0,29.91,SSW,193,7.0,20.0,93,0.00,,,0.16,,2013-01-28 14:33:00,
2013-01-28 08:43:00,48.0,46.0,29.91,SSW,193,7.0,20.0,93,0.00,,,0.16,,2013-01-28 14:43:00,
2013-01-28 08:53:00,49.0,47.0,29.91,South,177,7.0,18.0,93,0.00,,,0.16,,2013-01-28 14:53:00,
2013-01-28 09:03:00,49.0,47.0,29.91,South,177,7.0,18.0,93,0.00,,,0.16,,2013-01-28 15:03:00,
2013-01-28 09:12:00,49.0,47.0,29.91,South,177,7.0,18.0,93,0.00,,,0.16,,2013-01-28 15:12:00,
2013-01-28 09:23:00,49.0,47.0,29.91,SSE,161,5.0,16.0,93,0.00,,,0.16,,2013-01-28 15:23:00,
2013-01-28 09:33:00,49.0,47.0,29.91,SSW,196,7.0,10.0,93,0.00,,,0.16,,2013-01-28 15:33:00,
2013-01-28 09:43:00,49.0,47.0,29.91,SSW,196,7.0,10.0,93,0.00,,,0.16,,2013-01-28 15:43:00,
2013-01-28 09:53:00,50.0,48.0,29.91,South,170,10.0,18.0,93,0.00,,,0.16,,2013-01-28 15:53:00,
2013-01-28 10:03:00,50.0,48.0,29.91,South,180,8.0,16.0,93,0.00,,,0.16,,2013-01-28 16:03:00,
2013-01-28 10:12:00,50.0,48.0,29.91,South,180,8.0,16.0,93,0.00,,,0.16,,2013-01-28 16:12:00,
2013-01-28 10:22:00,50.0,48.0,29.92,South,176,6.0,16.0,93,0.00,,,0.16,,2013-01-28 16:22:00,
2013-01-28 10:32:00,50.0,48.0,29.92,South,173,6.0,16.0,93,0.00,,,0.16,,2013-01-28 16:32:00,
2013-01-28 10:42:00,50.0,48.0,29.92,South,173,6.0,16.0,93,0.00,,,0.16,,2013-01-28 16:42:00,
2013-01-28 10:53:00,50.0,48.0,29.93,SSE,167,7.0,14.0,93,0.00,,,0.16,,2013-01-28 16:53:00,
2013-01-28 11:02:00,50.0,48.0,29.93,SSE,167,7.0,14.0,93,0.00,,,0.16,,2013-01-28 17:02:00,
2013-01-28 11:12:00,50.0,48.0,29.93,SSE,167,7.0,14.0,93,0.00,,,0.16,,2013-01-28 17:12:00,
2013-01-28 11:23:00,51.0,49.0,29.93,SSE,156,9.0,20.0,93,0.00,,,0.16,,2013-01-28 17:23:00,
2013-01-28 11:32:00,51.0,49.0,29.93,South,175,6.0,10.0,93,0.00,,,0.16,,2013-01-28 17:32:00,
2013-01-28 11:42:00,51.0,49.0,29.93,South,175,6.0,10.0,93,0.00,,,0.16,,2013-01-28 17:42:00,
2013-01-28 11:52:00,51.0,49.0,29.92,SSE,156,7.0,15.0,93,0.00,,,0.16,,2013-01-28 17:52:00,
2013-01-28 12:02:00,52.0,50.0,29.91,SSE,164,5.0,9.0,93,0.00,,,0.16,,2013-01-28 18:02:00,
2013-01-28 12:12:00,52.0,50.0,29.91,SSE,164,5.0,9.0,93,0.00,,,0.16,,2013-01-28 18:12:00,
2013-01-28 12:23:00,52.0,50.0,29.91,South,187,7.0,10.0,93,0.00,,,0.16,,2013-01-28 18:23:00,
2013-01-28 12:33:00,52.0,50.0,29.91,SSE,167,4.0,10.0,93,0.00,,,0.16,,2013-01-28 18:33:00,
2013-01-28 12:42:00,52.0,50.0,29.91,SSE,167,4.0,10.0,93,0.00,,,0.16,,2013-01-28 18:42:00,
2013-01-28 12:52:00,52.0,50.0,29.91,SSE,167,4.0,10.0,93,0.00,,,0.16,,2013-01-28 18:52:00,
2013-01-28 13:02:00,52.0,50.0,29.90,SSE,154,6.0,15.0,93,0.00,,,0.16,,2013-01-28 19:02:00,
2013-01-28 13:12:00,52.0,50.0,29.90,SSE,154,6.0,15.0,93,0.00,,,0.16,,2013-01-28 19:12:00,
2013-01-28 13:22:00,53.0,51.0,29.89,South,187,6.0,15.0,94,0.00,,,0.16,,2013-01-28 19:22:00,
2013-01-28 13:32:00,53.0,51.0,29.88,SE,142,1.0,9.0,94,0.00,,,0.16,,2013-01-28 19:32:00,
2013-01-28 13:42:00,53.0,51.0,29.88,SE,142,1.0,9.0,94,0.00,,,0.16,,2013-01-28 19:42:00,
2013-01-28 13:52:00,53.0,51.0,29.88,South,177,5.0,14.0,94,0.00,,,0.16,,2013-01-28 19:52:00,
2013-01-28 14:02:00,53.0,51.0,29.88,South,174,3.0,16.0,94,0.00,,,0.16,,2013-01-28 20:02:00,
2013-01-28 14:12:00,53.0,51.0,29.88,South,174,3.0,16.0,94,0.00,,,0.16,,2013-01-28 20:12:00,
2013-01-28 14:22:00,53.0,52.0,29.88,South,186,6.0,12.0,95,0.00,,,0.16,,2013-01-28 20:22:00,
2013-01-28 14:33:00,53.0,52.0,29.88,South,176,6.0,10.0,95,0.00,,,0.16,,2013-01-28 20:33:00,
2013-01-28 14:42:00,53.0,52.0,29.88,South,176,6.0,10.0,95,0.00,,,0.16,,2013-01-28 20:42:00,
2013-01-28 14:53:00,53.0,52.0,29.88,South,176,6.0,10.0,95,0.00,,,0.16,,2013-01-28 20:53:00,
2013-01-28 15:03:00,53.0,52.0,29.88,SSE,154,2.0,8.0,95,0.00,,,0.16,,2013-01-28 21:03:00,
2013-01-28 15:12:00,53.0,52.0,29.88,SSE,154,2.0,8.0,95,0.00,,,0.16,,2013-01-28 21:12:00,
2013-01-28 15:22:00,54.0,53.0,29.89,SSE,160,3.0,8.0,95,0.00,,,0.16,,2013-01-28 21:22:00,
2013-01-28 15:33:00,54.0,53.0,29.89,SSE,160,3.0,8.0,95,0.00,,,0.16,,2013-01-28 21:33:00,
2013-01-28 15:42:00,54.0,53.0,29.89,SSE,160,3.0,8.0,95,0.00,,,0.16,,2013-01-28 21:42:00,
2013-01-28 15:53:00,54.0,53.0,29.89,SSE,160,3.0,8.0,95,0.00,,,0.16,,2013-01-28 21:53:00,
2013-01-28 16:02:00,53.0,52.0,29.89,SSE,157,5.0,9.0,95,0.00,,,0.16,,2013-01-28 22:02:00,
2013-01-28 16:12:00,53.0,52.0,29.89,SSE,157,5.0,9.0,95,0.00,,,0.16,,2013-01-28 22:12:00,
2013-01-28 16:23:00,53.0,52.0,29.89,SE,132,2.0,10.0,95,0.00,,,0.16,,2013-01-28 22:23:00,
2013-01-28 16:32:00,53.0,52.0,29.89,SSE,148,3.0,6.0,96,0.00,,,0.16,,2013-01-28 22:32:00,
2013-01-28 16:42:00,53.0,52.0,29.89,SSE,148,3.0,6.0,96,0.00,,,0.16,,2013-01-28 22:42:00,
2013-01-28 16:52:00,53.0,52.0,29.90,SSE,150,4.0,9.0,96,0.00,,,0.16,,2013-01-28 22:52:00,
2013-01-28 17:02:00,53.0,52.0,29.90,SSE,150,4.0,9.0,96,0.00,,,0.16,,2013-01-28 23:02:00,
2013-01-28 17:12:00,53.0,52.0,29.90,SSE,150,4.0,9.0,96,0.00,,,0.16,,2013-01-28 23:12:00,
2013-01-28 17:22:00,53.0,52.0,29.90,South,189,3.0,10.0,96,0.00,,,0.16,,2013-01-28 23:22:00,
2013-01-28 17:32:00,53.0,52.0,29.90,South,172,4.0,9.0,96,0.00,,,0.09,,2013-01-28 23:32:00,
2013-01-28 17:41:00,53.0,52.0,29.90,SSE,153,3.0,10.0,96,0.00,,,0.07,,2013-01-28 23:41:00,
2013-01-28 17:42:00,53.0,52.0,29.90,South,172,4.0,9.0,96,0.00,,,0.09,,2013-01-28 23:42:00,
2013-01-28 17:53:00,53.0,52.0,29.90,South,172,4.0,9.0,96,0.00,,,0.08,,2013-01-28 23:53:00,
2013-01-28 18:02:00,53.0,52.0,29.90,SSE,153,3.0,10.0,96,0.00,,,0.07,,2013-01-29 00:02:00,
2013-01-28 18:12:00,53.0,52.0,29.90,SSE,153,3.0,10.0,96,0.00,,,0.07,,2013-01-29 00:12:00,
2013-01-28 18:22:00,53.0,52.0,29.90,SSE,153,3.0,10.0,96,0.00,,,0.07,,2013-01-29 00:22:00,
2013-01-28 18:32:00,53.0,52.0,29.90,SSE,153,3.0,10.0,96,0.00,,,0.07,,2013-01-29 00:32:00,
2013-01-28 18:52:00,53.0,52.0,29.91,SSE,150,5.0,10.0,96,0.00,,,0.06,,2013-01-29 00:52:00,
2013-01-28 19:02:00,53.0,52.0,29.90,SSE,153,5.0,10.0,96,0.00,,,0.06,,2013-01-29 01:02:00,
2013-01-28 19:12:00,53.0,52.0,29.90,SSE,153,5.0,10.0,96,0.00,,,0.06,,2013-01-29 01:12:00,
2013-01-28 19:22:00,53.0,52.0,29.90,SSE,153,5.0,10.0,96,0.00,,,0.06,,2013-01-29 01:22:00,
2013-01-28 19:32:00,54.0,53.0,29.89,SSE,156,7.0,10.0,97,0.00,,,0.06,,2013-01-29 01:32:00,
2013-01-28 19:42:00,54.0,53.0,29.89,SSE,156,7.0,10.0,97,0.00,,,0.06,,2013-01-29 01:42:00,
2013-01-28 19:52:00,54.0,53.0,29.89,SSE,156,7.0,10.0,97,0.00,,,0.06,,2013-01-29 01:52:00,
2013-01-28 20:02:00,54.0,53.0,29.90,SSE,168,6.0,9.0,97,0.00,,,0.06,,2013-01-29 02:02:00,
2013-01-28 20:11:00,54.0,53.0,29.90,SSE,167,5.0,8.0,97,0.00,,,0.06,,2013-01-29 02:11:00,
2013-01-28 20:12:00,54.0,53.0,29.90,SSE,168,6.0,9.0,97,0.00,,,0.06,,2013-01-29 02:12:00,
2013-01-28 20:22:00,54.0,53.0,29.89,SSW,196,6.0,10.0,97,0.00,,,0.06,,2013-01-29 02:22:00,
2013-01-28 20:33:00,54.0,53.0,29.90,SSE,167,5.0,8.0,97,0.00,,,0.06,,2013-01-29 02:33:00,
2013-01-28 20:42:00,54.0,53.0,29.90,SSE,167,5.0,8.0,97,0.00,,,0.06,,2013-01-29 02:42:00,
2013-01-28 20:53:00,54.0,53.0,29.90,SSE,167,5.0,8.0,97,0.00,,,0.06,,2013-01-29 02:53:00,
2013-01-28 21:03:00,54.0,53.0,29.90,SSE,167,5.0,8.0,97,0.00,,,0.06,,2013-01-29 03:03:00,
2013-01-28 21:22:00,54.0,53.0,29.89,SSE,153,5.0,15.0,97,0.00,,,0.06,,2013-01-29 03:22:00,
2013-01-28 21:32:00,54.0,53.0,29.89,SSE,168,7.0,16.0,97,0.00,,,0.06,,2013-01-29 03:32:00,
2013-01-28 21:42:00,54.0,53.0,29.89,SSE,168,7.0,16.0,97,0.00,,,0.06,,2013-01-29 03:42:00,
2013-01-28 21:53:00,54.0,53.0,29.89,SSE,168,7.0,16.0,97,0.00,,,0.06,,2013-01-29 03:53:00,
2013-01-28 22:02:00,54.0,53.0,29.87,SSE,151,9.0,15.0,97,0.00,,,0.06,,2013-01-29 04:02:00,
2013-01-28 22:11:00,54.0,53.0,29.87,SSE,151,9.0,15.0,97,0.00,,,0.06,,2013-01-29 04:11:00,
2013-01-28 22:22:00,55.0,54.0,29.87,SE,138,6.0,20.0,97,0.00,,,0.06,,2013-01-29 04:22:00,
2013-01-28 22:32:00,55.0,54.0,29.87,SSE,153,9.0,15.0,97,0.00,,,0.06,,2013-01-29 04:32:00,
2013-01-28 22:42:00,55.0,54.0,29.87,SSE,153,9.0,15.0,97,0.00,,,0.06,,2013-01-29 04:42:00,
2013-01-28 22:52:00,56.0,55.0,29.86,South,184,8.0,21.0,97,0.00,,,0.06,,2013-01-29 04:52:00,
2013-01-28 23:03:00,56.0,55.0,29.86,SE,146,10.0,21.0,97,0.00,,,0.06,,2013-01-29 05:03:00,
2013-01-28 23:12:00,56.0,55.0,29.86,SE,146,10.0,21.0,97,0.00,,,0.06,,2013-01-29 05:12:00,
2013-01-28 23:21:00,56.0,55.0,29.86,SE,146,10.0,21.0,97,0.00,,,0.06,,2013-01-29 05:21:00,
2013-01-28 23:32:00,56.0,55.0,29.85,SSE,154,10.0,14.0,97,0.00,,,0.06,,2013-01-29 05:32:00,
2013-01-28 23:42:00,56.0,55.0,29.85,SSE,154,10.0,14.0,97,0.00,,,0.06,,2013-01-29 05:42:00,
2013-01-28 23:52:00,56.0,55.0,29.85,SSE,165,11.0,21.0,97,0.00,,,0.06,,2013-01-29 05:52:00,